DECAYED
Showing default

DRAGON CRS-32, 63628 (Decayed)

Orbit data source: Space-Track

DRAGON CRS-32, 63628 was a payload satellite owned by SpaceX (US) in LEO that was launched on Mon, 21 Apr 2025 UTC via an FALCON 9 launch vehicle from the Air Force Eastern Test Range (AFETR). Payload-class satellites include a variety of spacecraft equipped with specific instruments for various scientific and technological missions. These include communications satellites like Starlink; space stations such as the ISS; scientific satellites like the Hubble; Earth observation satellites from companies like Planet Labs, Umbra, and HawkEye 360; GPS; miniature CubeSats for education and research; and military/defense satellites.

Loading next visibility...
Identifier
63628, 2025-080A
Orbit
Decayed
Last TLE update
1 month ago
Origin
Flag of USSPX (US)
Manufacturer
SpaceX
Mission
Decayed Commercial Spaceship
Bus & Motor
DRAGON CM, Unknown motor
Mass
~15,600 kg wet, ~9,000 kg dry
Launch date (UTC)
2025-04-21 (2 months ago)
Launch vehicle
FALCON 9
Launch site
Air Force Eastern Test Range (AFETR)
Object type
Payload
Rocket body
Debris
Shape & HBR
Trunc Cone + Cyl + 2 Fin, 16.5 m
Radar Cross Section
36.564 m², Large (>1 m²)

Expand to show TLE details & history

TLE from 1 month ago
0 DRAGON CRS-32
1 63628U 25080A   25143.97378780  .00207185  00000-0  31222-2 0  9999
2 63628  51.6379  67.0348 0003298  91.9939   7.7176 15.53535968  5191
Epoch: 2025-05-23T23:22Z
TLE epoch observation values (Epoch: 2025-05-23T23:22:15.265Z)
Latitude
50.76583°
Longitude
-59.90894°
Altitude
410.013 km
Speed
7.672 km/s
True Right ascension
11h 29m 54s
True Declination
50° 35' 19"
Sunlit
Object was in daylight at epoch
Visualization orbit readout
Visualization observer readout
Orbital elements
Apogee altitude
409.158 km
Perigee altitude
404.683 km
Semi-major axis
6,785.058 km
Eccentricity
0.00033
Inclination
51.6379°
RAAN
67.0348°
Arg. of periapsis
91.9939°
True anomaly
Unknown
Mean anomaly
7.7176°
Eccentric anomaly
Unknown
Mean motion
3.88341 °/min
Orbital period
92.7 mins
BSTAR
0.0031222
Loading maneuver chart data...
Loading SW <> Apogee altitude chart data...
Loading historical data...
Loading historical data...
Loading historical data...
Loading historical data...
Loading historical data...
Loading historical data...
Loading historical data...
Other satellites on launch #80 in the year 2025 (2025-04-21 UTC)

DRAGON CRS-32 Visibility forecast

Observer location: undefined°, undefined°

Span
Click to sort rows by Start time (UTC) header in descending order
Start Az.
Max El. time (UTC)
Max El. Az.
Max El.
End time (UTC)
End Az.
5 mins2025-07-02 06:25:37.077Z239.319° WSW2025-07-02 06:27:37.077Z263.13° W39.287°2025-07-02 06:30:37.077Z48.331° ENE
4 mins2025-07-02 12:49:37.077Z297.043° NW2025-07-02 12:50:37.077Z263.959° W41.758°2025-07-02 12:53:37.077Z135.273° SSE
|